Home > Weather > Prince George > Past weeks

Flag for Canada Past Weather in Prince George, British Columbia, Canada — Yesterday and Last 2 Weeks

Now
59 °F

Light rain. Overcast.


Feels Like: 59 °F
Forecast: 57 / 72 °F
Wind: 5 mph from Southeast

Location: Prince George

Current Time: Jul 1, 2016 at 10:40:37 PM

Latest Report: Jul 1, 2016 at 10:00 PM


Visibility: 9 mi

Pressure: 29.94 "Hg (27.97 "Hg at 573m altitude)

Humidity: 88%

Dew Point: 55 °F

Location of Prince GeorgeLocation

Past Weather in Prince George — Graph

°F

Prince George Temperature Yesterday

Maximum temperature yesterday: 75 °F (at 3:00 PM)
Minimum temperature yesterday: 54 °F (at 5:00 AM)
Average temperature yesterday: 65 °F

High & Low Weather Summary for the Past Weeks

 TemperatureHumidityPressure
High82 °F (Jun 28, 4:00 PM)100% (Jun 17, 12:00 AM)30.30 "Hg (Jun 17, 12:00 AM)
Low43 °F (Jun 23, 3:00 AM)23% (Jun 21, 4:00 PM)29.87 "Hg (Jun 23, 11:00 AM)
Average60 °F68%30.08 "Hg
* Reported Jun 16 9:00 PM — Jul 1 9:00 PM, Prince George, Weather by CustomWeather, © 2016

Note: Actual official high and low records may vary slightly from our data, if they occured in-between our weather recording intervals... More about our weather records

Advertising

Prince George Weather History for the Previous 24 Hours

Scroll right to see more
 ConditionsComfort  
Time TempWeatherWind HumidityBarometerVisibility
9:00 PM
Fri, Jul 1
59 °FPartly sunny.3 mph88%29.93 "Hg9 mi
8:00 PM61 °FPartly sunny.6 mph83%29.92 "Hg9 mi
7:00 PM61 °FPartly sunny.9 mph83%29.92 "Hg9 mi
6:00 PM59 °FRain. Mostly cloudy.7 mph82%29.95 "Hg9 mi
5:00 PM68 °FThundershowers. Overcast.9 mph56%29.92 "Hg9 mi
4:00 PM70 °FPassing clouds.3 mph50%29.91 "Hg9 mi
3:00 PM70 °FPartly sunny.12 mph50%29.92 "Hg9 mi
2:00 PM68 °FPartly sunny.17 mph53%29.94 "Hg9 mi
1:00 PM64 °FPartly sunny.8 mph64%29.96 "Hg9 mi
12:00 PM61 °FOvercast.6 mph68%29.98 "Hg9 mi
11:00 AM55 °FOvercast.8 mph88%29.98 "Hg9 mi
10:00 AM55 °FLight rain. Partly sunny.9 mph82%29.98 "Hg9 mi
9:00 AM55 °FLight rain. Mostly cloudy.6 mph88%29.97 "Hg9 mi
8:00 AM57 °FPartly sunny.6 mph77%29.95 "Hg9 mi
7:55 AM55 °FPartly sunny.6 mph82%29.94 "Hg9 mi
7:00 AM55 °FPartly sunny.3 mph82%29.92 "Hg9 mi
6:00 AM54 °FOvercast.2 mph88%29.92 "Hg9 mi
5:00 AM54 °FPassing clouds.3 mph82%29.92 "Hg9 mi
4:00 AM54 °FPassing clouds.No wind82%29.92 "Hg9 mi
3:00 AM54 °FPassing clouds.No wind88%29.94 "Hg9 mi
2:00 AM54 °FPassing clouds.2 mph82%29.94 "Hg9 mi
1:00 AM59 °FPassing clouds.3 mph68%29.95 "Hg9 mi
12:00 AM55 °FPassing clouds.5 mph77%29.96 "Hg9 mi
11:00 PM
Thu, Jun 30
61 °FPassing clouds.No wind68%29.97 "Hg9 mi
10:00 PM63 °FPartly sunny.3 mph64%29.98 "Hg9 mi
Weather by CustomWeather, © 2016

See weather overviewHow to use our weather pages